owner,sensor,date,latitude,longitude,vertical_datum,sea_water_practical_salinity,qcFlag 
DISL,ioos:station:DISL:CATA:1,2015-06-01T00:00:00Z,30.3085,-88.1395,2.084,10.22,1111122 
DISL,ioos:station:DISL:CATA:1,2015-06-01T00:30:00Z,30.3085,-88.1395,2.093,10.25,1111122 
DISL,ioos:station:DISL:CATA:1,2015-06-01T01:00:00Z,30.3085,-88.1395,2.087,10.49,1111122 
DISL,ioos:station:DISL:CATA:1,2015-06-01T01:30:00Z,30.3085,-88.1395,2.071,11.18,1111122 
DISL,ioos:station:DISL:CATA:1,2015-06-01T02:00:00Z,30.3085,-88.1395,2.066,10.51,1111122 
DISL,ioos:station:DISL:CATA:1,2015-06-01T02:30:00Z,30.3085,-88.1395,2.065,10.79,1111122 
DISL,ioos:station:DISL:CATA:1,2015-06-01T03:00:00Z,30.3085,-88.1395,2.079,10.58,1111122 
DISL,ioos:station:DISL:CATA:1,2015-06-01T03:30:00Z,30.3085,-88.1395,2.097,10.48,1111122 
DISL,ioos:station:DISL:CATA:1,2015-06-01T04:00:00Z,30.3085,-88.1395,2.114,10.55,1111122 
DISL,ioos:station:DISL:CATA:1,2015-06-01T04:30:00Z,30.3085,-88.1395,2.145,10.82,1111122 
DISL,ioos:station:DISL:CATA:1,2015-06-01T05:00:00Z,30.3085,-88.1395,2.187,10.82,1111122 
DISL,ioos:station:DISL:CATA:1,2015-06-01T05:30:00Z,30.3085,-88.1395,2.167,10.96,1111122 
DISL,ioos:station:DISL:CATA:1,2015-06-01T06:00:00Z,30.3085,-88.1395,2.167,10.84,1111122 
DISL,ioos:station:DISL:CATA:1,2015-06-01T06:30:00Z,30.3085,-88.1395,2.173,10.98,1111122 
DISL,ioos:station:DISL:CATA:1,2015-06-01T07:00:00Z,30.3085,-88.1395,2.189,11.19,1111122 
DISL,ioos:station:DISL:CATA:1,2015-06-01T07:30:00Z,30.3085,-88.1395,2.212,11.66,1111122 
DISL,ioos:station:DISL:CATA:1,2015-06-01T08:00:00Z,30.3085,-88.1395,2.218,11.51,1111122 
DISL,ioos:station:DISL:CATA:1,2015-06-01T08:30:00Z,30.3085,-88.1395,2.229,11.55,1111122 
DISL,ioos:station:DISL:CATA:1,2015-06-01T09:00:00Z,30.3085,-88.1395,2.265,11.5,1111122 
DISL,ioos:station:DISL:CATA:1,2015-06-01T09:30:00Z,30.3085,-88.1395,2.296,10.83,1111122 
DISL,ioos:station:DISL:CATA:1,2015-06-01T10:00:00Z,30.3085,-88.1395,2.324,10.56,1111122 
DISL,ioos:station:DISL:CATA:1,2015-06-01T10:30:00Z,30.3085,-88.1395,2.377,11.0,1111122 
DISL,ioos:station:DISL:CATA:1,2015-06-01T11:00:00Z,30.3085,-88.1395,2.408,10.61,1111122 
DISL,ioos:station:DISL:CATA:1,2015-06-01T11:30:00Z,30.3085,-88.1395,2.433,10.48,1111122 
DISL,ioos:station:DISL:CATA:1,2015-06-01T12:00:00Z,30.3085,-88.1395,2.456,11.14,1111122 
DISL,ioos:station:DISL:CATA:1,2015-06-01T12:30:00Z,30.3085,-88.1395,2.474,13.09,1111122 
DISL,ioos:station:DISL:CATA:1,2015-06-01T13:00:00Z,30.3085,-88.1395,2.481,12.82,1111122 
DISL,ioos:station:DISL:CATA:1,2015-06-01T13:30:00Z,30.3085,-88.1395,2.505,11.84,1111122 
DISL,ioos:station:DISL:CATA:1,2015-06-01T14:00:00Z,30.3085,-88.1395,2.535,11.96,1111122 
DISL,ioos:station:DISL:CATA:1,2015-06-01T14:30:00Z,30.3085,-88.1395,2.533,11.91,1111122 
DISL,ioos:station:DISL:CATA:1,2015-06-01T15:00:00Z,30.3085,-88.1395,2.501,13.41,1111122 
DISL,ioos:station:DISL:CATA:1,2015-06-01T15:30:00Z,30.3085,-88.1395,2.508,13.9,1111122 
DISL,ioos:station:DISL:CATA:1,2015-06-01T16:00:00Z,30.3085,-88.1395,2.509,14.27,1111122 
DISL,ioos:station:DISL:CATA:1,2015-06-01T16:30:00Z,30.3085,-88.1395,2.487,14.0,1111122 
DISL,ioos:station:DISL:CATA:1,2015-06-01T17:00:00Z,30.3085,-88.1395,2.47,12.93,1111122 
DISL,ioos:station:DISL:CATA:1,2015-06-01T17:30:00Z,30.3085,-88.1395,2.456,10.49,1111122 
DISL,ioos:station:DISL:CATA:1,2015-06-01T18:00:00Z,30.3085,-88.1395,2.431,11.16,1111122 
DISL,ioos:station:DISL:CATA:1,2015-06-01T18:30:00Z,30.3085,-88.1395,2.393,10.86,1111122 
DISL,ioos:station:DISL:CATA:1,2015-06-01T19:00:00Z,30.3085,-88.1395,2.358,10.36,1111122 
DISL,ioos:station:DISL:CATA:1,2015-06-01T19:30:00Z,30.3085,-88.1395,2.313,9.76,1111122 
DISL,ioos:station:DISL:CATA:1,2015-06-01T20:00:00Z,30.3085,-88.1395,2.264,9.48,1111122 
DISL,ioos:station:DISL:CATA:1,2015-06-01T20:30:00Z,30.3085,-88.1395,2.215,9.33,1111122 
DISL,ioos:station:DISL:CATA:1,2015-06-01T21:00:00Z,30.3085,-88.1395,2.17,9.45,1111122 
DISL,ioos:station:DISL:CATA:1,2015-06-01T21:30:00Z,30.3085,-88.1395,2.142,9.35,1111122 
DISL,ioos:station:DISL:CATA:1,2015-06-01T22:00:00Z,30.3085,-88.1395,2.106,9.4,1111122 
DISL,ioos:station:DISL:CATA:1,2015-06-01T22:30:00Z,30.3085,-88.1395,2.056,8.82,1111122 
DISL,ioos:station:DISL:CATA:1,2015-06-01T23:00:00Z,30.3085,-88.1395,2.02,8.71,1111122 
DISL,ioos:station:DISL:CATA:1,2015-06-01T23:30:00Z,30.3085,-88.1395,2.008,8.51,1111122 
DISL,ioos:station:DISL:CATA:1,2015-06-02T00:00:00Z,30.3085,-88.1395,1.984,8.81,1111122 
DISL,ioos:station:DISL:CATA:1,2015-06-02T00:30:00Z,30.3085,-88.1395,1.985,8.85,1111122 
DISL,ioos:station:DISL:CATA:1,2015-06-02T01:00:00Z,30.3085,-88.1395,2.001,9.36,1111122 
DISL,ioos:station:DISL:CATA:1,2015-06-02T01:30:00Z,30.3085,-88.1395,1.989,9.0,1111122 
DISL,ioos:station:DISL:CATA:1,2015-06-02T02:00:00Z,30.3085,-88.1395,1.981,9.04,1111122 
DISL,ioos:station:DISL:CATA:1,2015-06-02T02:30:00Z,30.3085,-88.1395,1.994,9.49,1111122 
DISL,ioos:station:DISL:CATA:1,2015-06-02T03:00:00Z,30.3085,-88.1395,2.021,9.29,1111122 
DISL,ioos:station:DISL:CATA:1,2015-06-02T03:30:00Z,30.3085,-88.1395,2.033,9.29,1111122 
DISL,ioos:station:DISL:CATA:1,2015-06-02T04:00:00Z,30.3085,-88.1395,2.058,9.26,1111122 
DISL,ioos:station:DISL:CATA:1,2015-06-02T04:30:00Z,30.3085,-88.1395,2.096,9.27,1111122 
DISL,ioos:station:DISL:CATA:1,2015-06-02T05:00:00Z,30.3085,-88.1395,2.117,9.32,1111122 
DISL,ioos:station:DISL:CATA:1,2015-06-02T05:30:00Z,30.3085,-88.1395,2.146,9.34,1111122 
DISL,ioos:station:DISL:CATA:1,2015-06-02T06:00:00Z,30.3085,-88.1395,2.163,8.87,1111122 
DISL,ioos:station:DISL:CATA:1,2015-06-02T06:30:00Z,30.3085,-88.1395,2.176,8.86,1111122 
DISL,ioos:station:DISL:CATA:1,2015-06-02T07:00:00Z,30.3085,-88.1395,2.198,9.29,1111122 
DISL,ioos:station:DISL:CATA:1,2015-06-02T07:30:00Z,30.3085,-88.1395,2.226,9.36,1111122 
DISL,ioos:station:DISL:CATA:1,2015-06-02T08:00:00Z,30.3085,-88.1395,2.241,9.4,1111122 
DISL,ioos:station:DISL:CATA:1,2015-06-02T08:30:00Z,30.3085,-88.1395,2.269,9.4,1111122 
DISL,ioos:station:DISL:CATA:1,2015-06-02T09:00:00Z,30.3085,-88.1395,2.301,9.41,1111122 
DISL,ioos:station:DISL:CATA:1,2015-06-02T09:30:00Z,30.3085,-88.1395,2.337,9.41,1111122 
DISL,ioos:station:DISL:CATA:1,2015-06-02T10:00:00Z,30.3085,-88.1395,2.374,9.47,1111122 
DISL,ioos:station:DISL:CATA:1,2015-06-02T10:30:00Z,30.3085,-88.1395,2.375,9.43,1111122 
DISL,ioos:station:DISL:CATA:1,2015-06-02T11:00:00Z,30.3085,-88.1395,2.351,10.01,1111122 
DISL,ioos:station:DISL:CATA:1,2015-06-02T11:30:00Z,30.3085,-88.1395,2.388,9.24,1111122 
DISL,ioos:station:DISL:CATA:1,2015-06-02T12:00:00Z,30.3085,-88.1395,2.439,9.26,1111122 
DISL,ioos:station:DISL:CATA:1,2015-06-02T12:30:00Z,30.3085,-88.1395,2.467,10.31,1111122 
DISL,ioos:station:DISL:CATA:1,2015-06-02T13:00:00Z,30.3085,-88.1395,2.519,11.01,1111122 
DISL,ioos:station:DISL:CATA:1,2015-06-02T13:30:00Z,30.3085,-88.1395,2.546,10.94,1111122 
DISL,ioos:station:DISL:CATA:1,2015-06-02T14:00:00Z,30.3085,-88.1395,2.557,11.65,1111122 
DISL,ioos:station:DISL:CATA:1,2015-06-02T14:30:00Z,30.3085,-88.1395,2.551,14.87,1111122 
DISL,ioos:station:DISL:CATA:1,2015-06-02T15:00:00Z,30.3085,-88.1395,2.547,16.03,1111122 
DISL,ioos:station:DISL:CATA:1,2015-06-02T15:30:00Z,30.3085,-88.1395,2.546,16.72,1111122 
DISL,ioos:station:DISL:CATA:1,2015-06-02T16:00:00Z,30.3085,-88.1395,2.56,18.11,1111122 
DISL,ioos:station:DISL:CATA:1,2015-06-02T16:30:00Z,30.3085,-88.1395,2.531,18.73,1111122 
DISL,ioos:station:DISL:CATA:1,2015-06-02T17:00:00Z,30.3085,-88.1395,2.498,18.97,1111122 
DISL,ioos:station:DISL:CATA:1,2015-06-02T17:30:00Z,30.3085,-88.1395,2.465,18.84,1111122 
DISL,ioos:station:DISL:CATA:1,2015-06-02T18:00:00Z,30.3085,-88.1395,2.455,17.73,1111122 
DISL,ioos:station:DISL:CATA:1,2015-06-02T18:30:00Z,30.3085,-88.1395,2.438,16.61,1111122 
DISL,ioos:station:DISL:CATA:1,2015-06-02T19:00:00Z,30.3085,-88.1395,2.398,10.34,1111122 
DISL,ioos:station:DISL:CATA:1,2015-06-02T19:30:00Z,30.3085,-88.1395,2.352,9.83,1111122 
DISL,ioos:station:DISL:CATA:1,2015-06-02T20:00:00Z,30.3085,-88.1395,2.295,9.77,1111122 
DISL,ioos:station:DISL:CATA:1,2015-06-02T20:30:00Z,30.3085,-88.1395,2.26,8.96,1111122 
DISL,ioos:station:DISL:CATA:1,2015-06-02T21:00:00Z,30.3085,-88.1395,2.217,8.96,1111122 
DISL,ioos:station:DISL:CATA:1,2015-06-02T21:30:00Z,30.3085,-88.1395,2.171,8.7,1111122 
DISL,ioos:station:DISL:CATA:1,2015-06-02T22:00:00Z,30.3085,-88.1395,2.122,8.64,1111122 
DISL,ioos:station:DISL:CATA:1,2015-06-02T22:30:00Z,30.3085,-88.1395,2.09,8.39,1111122 
DISL,ioos:station:DISL:CATA:1,2015-06-02T23:00:00Z,30.3085,-88.1395,2.054,8.32,1111122 
DISL,ioos:station:DISL:CATA:1,2015-06-02T23:30:00Z,30.3085,-88.1395,2.036,8.28,1111122 
DISL,ioos:station:DISL:CATA:1,2015-06-03T00:00:00Z,30.3085,-88.1395,2.021,8.2,1111122 
DISL,ioos:station:DISL:CATA:1,2015-06-03T00:30:00Z,30.3085,-88.1395,2.002,8.1,1111122 
DISL,ioos:station:DISL:CATA:1,2015-06-03T01:00:00Z,30.3085,-88.1395,1.996,8.0,1111122 
DISL,ioos:station:DISL:CATA:1,2015-06-03T01:30:00Z,30.3085,-88.1395,1.992,7.94,1111122 
DISL,ioos:station:DISL:CATA:1,2015-06-03T02:00:00Z,30.3085,-88.1395,2.004,7.88,1111122 
DISL,ioos:station:DISL:CATA:1,2015-06-03T02:30:00Z,30.3085,-88.1395,2.012,7.81,1111122 
DISL,ioos:station:DISL:CATA:1,2015-06-03T03:00:00Z,30.3085,-88.1395,2.034,7.71,1111122 
DISL,ioos:station:DISL:CATA:1,2015-06-03T03:30:00Z,30.3085,-88.1395,2.055,7.62,1111122 
DISL,ioos:station:DISL:CATA:1,2015-06-03T04:00:00Z,30.3085,-88.1395,2.067,7.5,1111122 
DISL,ioos:station:DISL:CATA:1,2015-06-03T04:30:00Z,30.3085,-88.1395,2.085,7.72,1111122 
DISL,ioos:station:DISL:CATA:1,2015-06-03T05:00:00Z,30.3085,-88.1395,2.096,7.71,1111122 
DISL,ioos:station:DISL:CATA:1,2015-06-03T05:30:00Z,30.3085,-88.1395,2.116,7.71,1111122 
DISL,ioos:station:DISL:CATA:1,2015-06-03T06:00:00Z,30.3085,-88.1395,2.123,7.82,1111122 
DISL,ioos:station:DISL:CATA:1,2015-06-03T06:30:00Z,30.3085,-88.1395,2.141,7.8,1111122 
DISL,ioos:station:DISL:CATA:1,2015-06-03T07:00:00Z,30.3085,-88.1395,2.176,7.82,1111122 
DISL,ioos:station:DISL:CATA:1,2015-06-03T07:30:00Z,30.3085,-88.1395,2.206,7.85,1111122 
DISL,ioos:station:DISL:CATA:1,2015-06-03T08:00:00Z,30.3085,-88.1395,2.195,7.89,1111122 
DISL,ioos:station:DISL:CATA:1,2015-06-03T08:30:00Z,30.3085,-88.1395,2.219,7.94,1111122 
DISL,ioos:station:DISL:CATA:1,2015-06-03T09:00:00Z,30.3085,-88.1395,2.263,7.97,1111122 
DISL,ioos:station:DISL:CATA:1,2015-06-03T09:30:00Z,30.3085,-88.1395,2.295,7.97,1111122 
DISL,ioos:station:DISL:CATA:1,2015-06-03T10:00:00Z,30.3085,-88.1395,2.316,7.58,1111122 
DISL,ioos:station:DISL:CATA:1,2015-06-03T10:30:00Z,30.3085,-88.1395,2.338,7.63,1111122 
DISL,ioos:station:DISL:CATA:1,2015-06-03T11:00:00Z,30.3085,-88.1395,2.359,7.71,1111122 
DISL,ioos:station:DISL:CATA:1,2015-06-03T11:30:00Z,30.3085,-88.1395,2.366,11.38,1111122 
DISL,ioos:station:DISL:CATA:1,2015-06-03T12:00:00Z,30.3085,-88.1395,2.388,13.5,1111122 
DISL,ioos:station:DISL:CATA:1,2015-06-03T12:30:00Z,30.3085,-88.1395,2.409,14.51,1111122 
DISL,ioos:station:DISL:CATA:1,2015-06-03T13:00:00Z,30.3085,-88.1395,2.437,15.02,1111122 
DISL,ioos:station:DISL:CATA:1,2015-06-03T13:30:00Z,30.3085,-88.1395,2.468,15.27,1111122 
DISL,ioos:station:DISL:CATA:1,2015-06-03T14:00:00Z,30.3085,-88.1395,2.495,16.4,1111122 
DISL,ioos:station:DISL:CATA:1,2015-06-03T14:30:00Z,30.3085,-88.1395,2.504,16.78,1111122 
DISL,ioos:station:DISL:CATA:1,2015-06-03T15:00:00Z,30.3085,-88.1395,2.541,16.68,1111122 
DISL,ioos:station:DISL:CATA:1,2015-06-03T15:30:00Z,30.3085,-88.1395,2.559,16.4,1111122 
DISL,ioos:station:DISL:CATA:1,2015-06-03T16:00:00Z,30.3085,-88.1395,2.575,15.99,1111122 
DISL,ioos:station:DISL:CATA:1,2015-06-03T16:30:00Z,30.3085,-88.1395,2.582,15.18,1111122 
DISL,ioos:station:DISL:CATA:1,2015-06-03T17:00:00Z,30.3085,-88.1395,2.565,15.92,1111122 
DISL,ioos:station:DISL:CATA:1,2015-06-03T17:30:00Z,30.3085,-88.1395,2.557,15.69,1111122 
DISL,ioos:station:DISL:CATA:1,2015-06-03T18:00:00Z,30.3085,-88.1395,2.548,14.67,1111122 
DISL,ioos:station:DISL:CATA:1,2015-06-03T18:30:00Z,30.3085,-88.1395,2.522,15.73,1111122 
DISL,ioos:station:DISL:CATA:1,2015-06-03T19:00:00Z,30.3085,-88.1395,2.491,16.35,1111122 
DISL,ioos:station:DISL:CATA:1,2015-06-03T19:30:00Z,30.3085,-88.1395,2.453,16.23,1111122 
DISL,ioos:station:DISL:CATA:1,2015-06-03T20:00:00Z,30.3085,-88.1395,2.412,12.42,1111122 
DISL,ioos:station:DISL:CATA:1,2015-06-03T20:30:00Z,30.3085,-88.1395,2.366,8.85,1111122 
DISL,ioos:station:DISL:CATA:1,2015-06-03T21:00:00Z,30.3085,-88.1395,2.32,8.02,1111122 
DISL,ioos:station:DISL:CATA:1,2015-06-03T21:30:00Z,30.3085,-88.1395,2.271,7.76,1111122 
DISL,ioos:station:DISL:CATA:1,2015-06-03T22:00:00Z,30.3085,-88.1395,2.223,7.56,1111122 
DISL,ioos:station:DISL:CATA:1,2015-06-03T22:30:00Z,30.3085,-88.1395,2.168,7.44,1111122 
DISL,ioos:station:DISL:CATA:1,2015-06-03T23:00:00Z,30.3085,-88.1395,2.128,7.24,1111122 
DISL,ioos:station:DISL:CATA:1,2015-06-03T23:30:00Z,30.3085,-88.1395,2.09,6.88,1111122 
DISL,ioos:station:DISL:CATA:1,2015-06-04T00:00:00Z,30.3085,-88.1395,2.063,6.53,1111122 
DISL,ioos:station:DISL:CATA:1,2015-06-04T00:30:00Z,30.3085,-88.1395,2.039,6.41,1111122 
DISL,ioos:station:DISL:CATA:1,2015-06-04T01:00:00Z,30.3085,-88.1395,2.014,6.27,1111122 
DISL,ioos:station:DISL:CATA:1,2015-06-04T01:30:00Z,30.3085,-88.1395,2.005,6.18,1111122 
DISL,ioos:station:DISL:CATA:1,2015-06-04T02:00:00Z,30.3085,-88.1395,1.999,6.0,1111122 
DISL,ioos:station:DISL:CATA:1,2015-06-04T02:30:00Z,30.3085,-88.1395,1.998,6.07,1111122 
DISL,ioos:station:DISL:CATA:1,2015-06-04T03:00:00Z,30.3085,-88.1395,2.004,6.25,1111122 
DISL,ioos:station:DISL:CATA:1,2015-06-04T03:30:00Z,30.3085,-88.1395,2.028,6.29,1111122 
DISL,ioos:station:DISL:CATA:1,2015-06-04T04:00:00Z,30.3085,-88.1395,2.014,6.32,1111122 
DISL,ioos:station:DISL:CATA:1,2015-06-04T04:30:00Z,30.3085,-88.1395,2.027,6.08,1111122 
DISL,ioos:station:DISL:CATA:1,2015-06-04T05:00:00Z,30.3085,-88.1395,2.029,6.0,1111122 
DISL,ioos:station:DISL:CATA:1,2015-06-04T05:30:00Z,30.3085,-88.1395,2.075,5.73,1111122 
DISL,ioos:station:DISL:CATA:1,2015-06-04T06:00:00Z,30.3085,-88.1395,2.097,5.51,1111122 
DISL,ioos:station:DISL:CATA:1,2015-06-04T06:30:00Z,30.3085,-88.1395,2.106,5.49,1111122 
DISL,ioos:station:DISL:CATA:1,2015-06-04T07:00:00Z,30.3085,-88.1395,2.12,5.65,1111122 
DISL,ioos:station:DISL:CATA:1,2015-06-04T07:30:00Z,30.3085,-88.1395,2.138,5.9,1111122 
DISL,ioos:station:DISL:CATA:1,2015-06-04T08:00:00Z,30.3085,-88.1395,2.165,5.92,1111122 
DISL,ioos:station:DISL:CATA:1,2015-06-04T08:30:00Z,30.3085,-88.1395,2.189,5.88,1111122 
DISL,ioos:station:DISL:CATA:1,2015-06-04T09:00:00Z,30.3085,-88.1395,2.22,6.07,1111122 
DISL,ioos:station:DISL:CATA:1,2015-06-04T09:30:00Z,30.3085,-88.1395,2.243,6.08,1111122 
DISL,ioos:station:DISL:CATA:1,2015-06-04T10:00:00Z,30.3085,-88.1395,2.268,6.05,1111122 
DISL,ioos:station:DISL:CATA:1,2015-06-04T10:30:00Z,30.3085,-88.1395,2.298,6.0,1111122 
DISL,ioos:station:DISL:CATA:1,2015-06-04T11:00:00Z,30.3085,-88.1395,2.31,5.99,1111122 
DISL,ioos:station:DISL:CATA:1,2015-06-04T11:30:00Z,30.3085,-88.1395,2.334,5.94,1111122 
DISL,ioos:station:DISL:CATA:1,2015-06-04T12:00:00Z,30.3085,-88.1395,2.366,5.86,1111122 
DISL,ioos:station:DISL:CATA:1,2015-06-04T12:30:00Z,30.3085,-88.1395,2.403,8.58,1111122 
DISL,ioos:station:DISL:CATA:1,2015-06-04T13:00:00Z,30.3085,-88.1395,2.44,9.43,1111122 
DISL,ioos:station:DISL:CATA:1,2015-06-04T13:30:00Z,30.3085,-88.1395,2.469,10.4,1111122 
DISL,ioos:station:DISL:CATA:1,2015-06-04T14:00:00Z,30.3085,-88.1395,2.502,10.95,1111122 
DISL,ioos:station:DISL:CATA:1,2015-06-04T14:30:00Z,30.3085,-88.1395,2.528,11.45,1111122 
DISL,ioos:station:DISL:CATA:1,2015-06-04T15:00:00Z,30.3085,-88.1395,2.56,12.0,1111122 
DISL,ioos:station:DISL:CATA:1,2015-06-04T15:30:00Z,30.3085,-88.1395,2.587,11.44,1111122 
DISL,ioos:station:DISL:CATA:1,2015-06-04T16:00:00Z,30.3085,-88.1395,2.605,11.07,1111122 
DISL,ioos:station:DISL:CATA:1,2015-06-04T16:30:00Z,30.3085,-88.1395,2.607,11.76,1111122 
DISL,ioos:station:DISL:CATA:1,2015-06-04T17:00:00Z,30.3085,-88.1395,2.595,11.8,1111122 
DISL,ioos:station:DISL:CATA:1,2015-06-04T17:30:00Z,30.3085,-88.1395,2.582,12.93,1111122 
DISL,ioos:station:DISL:CATA:1,2015-06-04T18:00:00Z,30.3085,-88.1395,2.564,13.7,1111122 
DISL,ioos:station:DISL:CATA:1,2015-06-04T18:30:00Z,30.3085,-88.1395,2.541,14.15,1111122 
DISL,ioos:station:DISL:CATA:1,2015-06-04T19:00:00Z,30.3085,-88.1395,2.521,14.35,1111122 
DISL,ioos:station:DISL:CATA:1,2015-06-04T19:30:00Z,30.3085,-88.1395,2.497,14.38,1111122 
DISL,ioos:station:DISL:CATA:1,2015-06-04T20:00:00Z,30.3085,-88.1395,2.47,14.35,1111122 
DISL,ioos:station:DISL:CATA:1,2015-06-04T20:30:00Z,30.3085,-88.1395,2.434,14.2,1111122 
DISL,ioos:station:DISL:CATA:1,2015-06-04T21:00:00Z,30.3085,-88.1395,2.401,9.03,1111122 
DISL,ioos:station:DISL:CATA:1,2015-06-04T21:30:00Z,30.3085,-88.1395,2.35,5.89,1111122 
DISL,ioos:station:DISL:CATA:1,2015-06-04T22:00:00Z,30.3085,-88.1395,2.29,4.91,1111122 
DISL,ioos:station:DISL:CATA:1,2015-06-04T22:30:00Z,30.3085,-88.1395,2.236,4.81,1111122 
DISL,ioos:station:DISL:CATA:1,2015-06-04T23:00:00Z,30.3085,-88.1395,2.179,4.73,1111122 
DISL,ioos:station:DISL:CATA:1,2015-06-04T23:30:00Z,30.3085,-88.1395,2.133,4.71,1111122 
DISL,ioos:station:DISL:CATA:1,2015-06-05T00:00:00Z,30.3085,-88.1395,2.092,4.6,1111122 
DISL,ioos:station:DISL:CATA:1,2015-06-05T00:30:00Z,30.3085,-88.1395,2.058,4.42,1111122 
DISL,ioos:station:DISL:CATA:1,2015-06-05T01:00:00Z,30.3085,-88.1395,2.028,4.3,1111122 
DISL,ioos:station:DISL:CATA:1,2015-06-05T01:30:00Z,30.3085,-88.1395,2.005,4.21,1111122 
DISL,ioos:station:DISL:CATA:1,2015-06-05T02:00:00Z,30.3085,-88.1395,1.992,4.12,1111122 
DISL,ioos:station:DISL:CATA:1,2015-06-05T02:30:00Z,30.3085,-88.1395,1.974,4.04,1111122 
DISL,ioos:station:DISL:CATA:1,2015-06-05T03:00:00Z,30.3085,-88.1395,1.966,4.01,1111122 
DISL,ioos:station:DISL:CATA:1,2015-06-05T03:30:00Z,30.3085,-88.1395,1.967,4.04,1111122 
DISL,ioos:station:DISL:CATA:1,2015-06-05T04:00:00Z,30.3085,-88.1395,1.97,3.9,1111122 
DISL,ioos:station:DISL:CATA:1,2015-06-05T04:30:00Z,30.3085,-88.1395,2.005,3.88,1111122 
DISL,ioos:station:DISL:CATA:1,2015-06-05T05:00:00Z,30.3085,-88.1395,1.993,3.89,1111122 
DISL,ioos:station:DISL:CATA:1,2015-06-05T05:30:00Z,30.3085,-88.1395,1.974,3.9,1111122 
DISL,ioos:station:DISL:CATA:1,2015-06-05T06:00:00Z,30.3085,-88.1395,2.007,3.85,1111122 
DISL,ioos:station:DISL:CATA:1,2015-06-05T06:30:00Z,30.3085,-88.1395,2.047,3.82,1111122 
DISL,ioos:station:DISL:CATA:1,2015-06-05T07:00:00Z,30.3085,-88.1395,2.079,3.83,1111122 
DISL,ioos:station:DISL:CATA:1,2015-06-05T07:30:00Z,30.3085,-88.1395,2.101,3.87,1111122 
DISL,ioos:station:DISL:CATA:1,2015-06-05T08:00:00Z,30.3085,-88.1395,2.122,3.88,1111122 
DISL,ioos:station:DISL:CATA:1,2015-06-05T08:30:00Z,30.3085,-88.1395,2.139,3.9,1111122 
DISL,ioos:station:DISL:CATA:1,2015-06-05T09:00:00Z,30.3085,-88.1395,2.164,3.86,1111122 
DISL,ioos:station:DISL:CATA:1,2015-06-05T09:30:00Z,30.3085,-88.1395,2.193,3.86,1111122 
DISL,ioos:station:DISL:CATA:1,2015-06-05T10:00:00Z,30.3085,-88.1395,2.229,3.92,1111122 
DISL,ioos:station:DISL:CATA:1,2015-06-05T10:30:00Z,30.3085,-88.1395,2.249,4.03,1111122 
DISL,ioos:station:DISL:CATA:1,2015-06-05T11:00:00Z,30.3085,-88.1395,2.279,4.15,1111122 
DISL,ioos:station:DISL:CATA:1,2015-06-05T11:30:00Z,30.3085,-88.1395,2.294,4.42,1111122 
DISL,ioos:station:DISL:CATA:1,2015-06-05T12:00:00Z,30.3085,-88.1395,2.321,5.77,1111122 
DISL,ioos:station:DISL:CATA:1,2015-06-05T12:30:00Z,30.3085,-88.1395,2.337,6.25,1111122 
DISL,ioos:station:DISL:CATA:1,2015-06-05T13:00:00Z,30.3085,-88.1395,2.364,6.33,1111122 
DISL,ioos:station:DISL:CATA:1,2015-06-05T13:30:00Z,30.3085,-88.1395,2.391,6.71,1111122 
DISL,ioos:station:DISL:CATA:1,2015-06-05T14:00:00Z,30.3085,-88.1395,2.42,6.75,1111122 
DISL,ioos:station:DISL:CATA:1,2015-06-05T14:30:00Z,30.3085,-88.1395,2.442,6.89,1111122 
DISL,ioos:station:DISL:CATA:1,2015-06-05T15:00:00Z,30.3085,-88.1395,2.466,7.4,1111122 
DISL,ioos:station:DISL:CATA:1,2015-06-05T15:30:00Z,30.3085,-88.1395,2.485,10.29,1111122 
DISL,ioos:station:DISL:CATA:1,2015-06-05T16:00:00Z,30.3085,-88.1395,2.502,12.59,1111122 
DISL,ioos:station:DISL:CATA:1,2015-06-05T16:30:00Z,30.3085,-88.1395,2.515,14.02,1111122 
DISL,ioos:station:DISL:CATA:1,2015-06-05T17:00:00Z,30.3085,-88.1395,2.521,14.99,1111122 
DISL,ioos:station:DISL:CATA:1,2015-06-05T17:30:00Z,30.3085,-88.1395,2.515,15.72,1111122 
DISL,ioos:station:DISL:CATA:1,2015-06-05T18:00:00Z,30.3085,-88.1395,2.512,16.08,1111122 
DISL,ioos:station:DISL:CATA:1,2015-06-05T18:30:00Z,30.3085,-88.1395,2.499,16.53,1111122 
DISL,ioos:station:DISL:CATA:1,2015-06-05T19:00:00Z,30.3085,-88.1395,2.481,17.05,1111122 
DISL,ioos:station:DISL:CATA:1,2015-06-05T19:30:00Z,30.3085,-88.1395,2.469,17.49,1111122 
DISL,ioos:station:DISL:CATA:1,2015-06-05T20:00:00Z,30.3085,-88.1395,2.444,17.75,1111122 
DISL,ioos:station:DISL:CATA:1,2015-06-05T20:30:00Z,30.3085,-88.1395,2.418,17.74,1111122 
DISL,ioos:station:DISL:CATA:1,2015-06-05T21:00:00Z,30.3085,-88.1395,2.387,17.83,1111122 
DISL,ioos:station:DISL:CATA:1,2015-06-05T21:30:00Z,30.3085,-88.1395,2.356,17.77,1111122 
DISL,ioos:station:DISL:CATA:1,2015-06-05T22:00:00Z,30.3085,-88.1395,2.311,14.56,1111122 
DISL,ioos:station:DISL:CATA:1,2015-06-05T22:30:00Z,30.3085,-88.1395,2.269,6.16,1111122 
DISL,ioos:station:DISL:CATA:1,2015-06-05T23:00:00Z,30.3085,-88.1395,2.223,4.71,1111122 
DISL,ioos:station:DISL:CATA:1,2015-06-05T23:30:00Z,30.3085,-88.1395,2.18,4.34,1111122 
DISL,ioos:station:DISL:CATA:1,2015-06-06T00:00:00Z,30.3085,-88.1395,2.141,4.21,1111122 
DISL,ioos:station:DISL:CATA:1,2015-06-06T00:30:00Z,30.3085,-88.1395,2.099,4.03,1111122 
DISL,ioos:station:DISL:CATA:1,2015-06-06T01:00:00Z,30.3085,-88.1395,2.065,3.93,1111122 
DISL,ioos:station:DISL:CATA:1,2015-06-06T01:30:00Z,30.3085,-88.1395,2.035,3.79,1111122 
DISL,ioos:station:DISL:CATA:1,2015-06-06T02:00:00Z,30.3085,-88.1395,2.017,3.84,1111122 
DISL,ioos:station:DISL:CATA:1,2015-06-06T02:30:00Z,30.3085,-88.1395,1.989,3.82,1111122 
DISL,ioos:station:DISL:CATA:1,2015-06-06T03:00:00Z,30.3085,-88.1395,1.984,3.76,1111122 
DISL,ioos:station:DISL:CATA:1,2015-06-06T03:30:00Z,30.3085,-88.1395,1.988,3.73,1111122 
DISL,ioos:station:DISL:CATA:1,2015-06-06T04:00:00Z,30.3085,-88.1395,1.983,3.71,1111122 
DISL,ioos:station:DISL:CATA:1,2015-06-06T04:30:00Z,30.3085,-88.1395,1.981,3.65,1111122 
DISL,ioos:station:DISL:CATA:1,2015-06-06T05:00:00Z,30.3085,-88.1395,1.977,3.63,1111122 
DISL,ioos:station:DISL:CATA:1,2015-06-06T05:30:00Z,30.3085,-88.1395,1.984,3.62,1111122 
DISL,ioos:station:DISL:CATA:1,2015-06-06T06:00:00Z,30.3085,-88.1395,1.984,3.72,1111122 
DISL,ioos:station:DISL:CATA:1,2015-06-06T06:30:00Z,30.3085,-88.1395,1.996,3.72,1111122 
DISL,ioos:station:DISL:CATA:1,2015-06-06T07:00:00Z,30.3085,-88.1395,1.999,3.69,1111122 
DISL,ioos:station:DISL:CATA:1,2015-06-06T07:30:00Z,30.3085,-88.1395,2.048,3.7,1111122 
DISL,ioos:station:DISL:CATA:1,2015-06-06T08:00:00Z,30.3085,-88.1395,2.052,3.69,1111122 
DISL,ioos:station:DISL:CATA:1,2015-06-06T08:30:00Z,30.3085,-88.1395,2.08,3.7,1111122 
DISL,ioos:station:DISL:CATA:1,2015-06-06T09:00:00Z,30.3085,-88.1395,2.103,3.66,1111122 
DISL,ioos:station:DISL:CATA:1,2015-06-06T09:30:00Z,30.3085,-88.1395,2.125,3.68,1111122 
DISL,ioos:station:DISL:CATA:1,2015-06-06T10:00:00Z,30.3085,-88.1395,2.135,3.69,1111122 
DISL,ioos:station:DISL:CATA:1,2015-06-06T10:30:00Z,30.3085,-88.1395,2.16,3.75,1111122 
DISL,ioos:station:DISL:CATA:1,2015-06-06T11:00:00Z,30.3085,-88.1395,2.19,3.79,1111122 
DISL,ioos:station:DISL:CATA:1,2015-06-06T11:30:00Z,30.3085,-88.1395,2.209,4.31,1111122 
DISL,ioos:station:DISL:CATA:1,2015-06-06T12:00:00Z,30.3085,-88.1395,2.228,5.85,1111122 
DISL,ioos:station:DISL:CATA:1,2015-06-06T12:30:00Z,30.3085,-88.1395,2.254,7.06,1111122 
DISL,ioos:station:DISL:CATA:1,2015-06-06T13:00:00Z,30.3085,-88.1395,2.286,8.24,1111122 
DISL,ioos:station:DISL:CATA:1,2015-06-06T13:30:00Z,30.3085,-88.1395,2.309,8.51,1111122 
DISL,ioos:station:DISL:CATA:1,2015-06-06T14:00:00Z,30.3085,-88.1395,2.324,9.14,1111122 
DISL,ioos:station:DISL:CATA:1,2015-06-06T14:30:00Z,30.3085,-88.1395,2.346,9.92,1111122 
DISL,ioos:station:DISL:CATA:1,2015-06-06T15:00:00Z,30.3085,-88.1395,2.375,10.84,1111122 